SAS1832 LDSP-ESSA

Flight info

Callsign SAS1832
Flight time N/A
Altitude 37000
Route UNIPA DCT KOPRY DCT XENAK/N0433F360 DCT DESEN DCT BEZMI DCT PENOR/N0433F370 DCT VSB/N0443F380 DCT ROGMI/N0438F370 Z229 NILUG
Aircraft A320/M-SDE3FGHIRWY/LB1

Departure

Time 2026-05-06 05:17
Airport Split Saint Jerome Airport (LDSP)

Arrival

Time N/A
Airport Stockholm-Arlanda Airport (ESSA)
Time Latitude Longitude Altitude Speed Heading
2026-05-06 04:52 43.53726 16.29873 79 ft 0 kts 114°
2026-05-06 05:08 43.53726 16.29872 79 ft 2 kts 114°
2026-05-06 05:08 43.53733 16.29852 90 ft 2 kts 114°
2026-05-06 05:09 43.53741 16.29832 84 ft 2 kts 156°
2026-05-06 05:09 43.53757 16.29825 85 ft 2 kts 192°
2026-05-06 05:09 43.53767 16.29830 85 ft 0 kts 239°
2026-05-06 05:12 43.53758 16.29809 85 ft 7 kts 239°
2026-05-06 05:12 43.53721 16.29727 84 ft 11 kts 234°
2026-05-06 05:12 43.53682 16.29631 85 ft 12 kts 262°
2026-05-06 05:12 43.53697 16.29506 84 ft 15 kts 280°
2026-05-06 05:13 43.53660 16.29368 87 ft 16 kts 240°
2026-05-06 05:13 43.53586 16.29236 83 ft 20 kts 231°
2026-05-06 05:13 43.53495 16.29080 83 ft 22 kts 232°
2026-05-06 05:13 43.53399 16.28910 84 ft 23 kts 232°
2026-05-06 05:14 43.53301 16.28737 91 ft 23 kts 232°
2026-05-06 05:14 43.53195 16.28610 91 ft 10 kts 237°
2026-05-06 05:14 43.53211 16.28593 92 ft 4 kts 25°
2026-05-06 05:14 43.53237 16.28623 90 ft 0 kts 48°
2026-05-06 05:16 43.53240 16.28626 90 ft 2 kts 48°
2026-05-06 05:17 43.53358 16.28829 89 ft 68 kts 53°
2026-05-06 05:17 43.53796 16.29624 85 ft 135 kts 52°
2026-05-06 05:17 43.54447 16.30780 391 ft 165 kts 53°
2026-05-06 05:17 43.55178 16.32076 1055 ft 168 kts 53°
2026-05-06 05:18 43.55678 16.33539 1472 ft 175 kts 83°
2026-05-06 05:18 43.55494 16.35178 2027 ft 173 kts 115°
2026-05-06 05:18 43.54714 16.36418 2650 ft 176 kts 146°
2026-05-06 05:18 43.53531 16.36893 3207 ft 182 kts 172°
2026-05-06 05:19 43.52300 16.37239 3788 ft 181 kts 154°
2026-05-06 05:19 43.51172 16.38023 4330 ft 183 kts 152°
2026-05-06 05:19 43.50040 16.38839 4916 ft 185 kts 153°
2026-05-06 05:19 43.48893 16.39670 5440 ft 189 kts 153°
2026-05-06 05:20 43.47720 16.40521 5535 ft 189 kts 153°
2026-05-06 05:20 43.46461 16.41015 5507 ft 202 kts 182°
2026-05-06 05:20 43.45024 16.40245 5704 ft 246 kts 221°
2026-05-06 05:20 43.43889 16.38475 6820 ft 248 kts 230°
2026-05-06 05:21 43.42871 16.36395 7289 ft 281 kts 246°
2026-05-06 05:21 43.42616 16.33577 7473 ft 321 kts 277°
2026-05-06 05:21 43.43531 16.30661 7979 ft 344 kts 308°
2026-05-06 05:21 43.45430 16.28744 9363 ft 341 kts 333°
2026-05-06 05:22 43.47834 16.28096 10300 ft 361 kts 356°
2026-05-06 05:22 43.50368 16.28826 10732 ft 390 kts 23°
2026-05-06 05:22 43.52729 16.30722 11741 ft 388 kts 30°
2026-05-06 05:22 43.55106 16.32282 13208 ft 375 kts 14°
2026-05-06 05:23 43.57625 16.33115 14347 ft 371 kts 11°
2026-05-06 05:23 43.60155 16.33935 15274 ft 375 kts 10°
2026-05-06 05:23 43.65280 16.35637 17176 ft 381 kts 11°
2026-05-06 05:24 43.67901 16.36515 17766 ft 395 kts 11°
2026-05-06 05:24 43.70648 16.37433 17985 ft 419 kts 11°
2026-05-06 05:24 43.73565 16.38405 18038 ft 443 kts 11°
2026-05-06 05:24 43.76646 16.39431 18034 ft 467 kts 11°
2026-05-06 05:25 43.79826 16.40495 18809 ft 466 kts 11°
2026-05-06 05:25 43.82949 16.41544 20053 ft 459 kts 11°
2026-05-06 05:25 43.86117 16.42606 20228 ft 479 kts 11°
2026-05-06 05:25 43.89400 16.43701 20626 ft 486 kts 11°
2026-05-06 05:26 43.92667 16.44794 21877 ft 478 kts 11°
2026-05-06 05:26 43.95872 16.45870 23160 ft 470 kts 11°
2026-05-06 05:26 43.98993 16.46928 24572 ft 453 kts 10°
2026-05-06 05:26 44.00996 16.47612 25409 ft 444 kts 10°
2026-05-06 05:27 44.04037 16.48522 26220 ft 438 kts
2026-05-06 05:27 44.07050 16.49170 26772 ft 438 kts
2026-05-06 05:27 44.10068 16.49802 27223 ft 440 kts
2026-05-06 05:27 44.13105 16.50425 27623 ft 442 kts
2026-05-06 05:28 44.16151 16.51050 28008 ft 444 kts
2026-05-06 05:28 44.19214 16.51681 28382 ft 446 kts
2026-05-06 05:28 44.22285 16.52318 28749 ft 448 kts
2026-05-06 05:28 44.25375 16.52967 29086 ft 449 kts
2026-05-06 05:29 44.28472 16.53617 29396 ft 451 kts
2026-05-06 05:29 44.31577 16.54272 29751 ft 453 kts
2026-05-06 05:29 44.34702 16.54933 30110 ft 454 kts
2026-05-06 05:29 44.37816 16.55594 30524 ft 452 kts
2026-05-06 05:30 44.40925 16.56257 30907 ft 452 kts
2026-05-06 05:30 44.44033 16.56918 31273 ft 451 kts
2026-05-06 05:30 44.47133 16.57572 31648 ft 451 kts
2026-05-06 05:30 44.50243 16.58231 32032 ft 451 kts
2026-05-06 05:31 44.53337 16.58889 32409 ft 450 kts
2026-05-06 05:31 44.56436 16.59548 32792 ft 450 kts
2026-05-06 05:31 44.59534 16.60205 33155 ft 450 kts
2026-05-06 05:31 44.62627 16.60865 33516 ft 450 kts
2026-05-06 05:32 44.65721 16.61527 33904 ft 449 kts
2026-05-06 05:32 44.68813 16.62192 34224 ft 449 kts
2026-05-06 05:32 44.71895 16.62852 34491 ft 449 kts
2026-05-06 05:32 44.74987 16.63513 34783 ft 449 kts
2026-05-06 05:33 44.78069 16.64172 35082 ft 448 kts
2026-05-06 05:33 44.81147 16.64830 35367 ft 447 kts
2026-05-06 05:33 44.84227 16.65490 35636 ft 447 kts
2026-05-06 05:33 44.87303 16.66151 35894 ft 447 kts
2026-05-06 05:34 44.90372 16.66816 36161 ft 446 kts
2026-05-06 05:34 44.93437 16.67480 36421 ft 446 kts
2026-05-06 05:34 44.96499 16.68137 36681 ft 445 kts
2026-05-06 05:34 44.99560 16.68792 36909 ft 445 kts
2026-05-06 05:35 45.05789 16.70124 36981 ft 455 kts
2026-05-06 05:35 45.12119 16.71490 36977 ft 466 kts
2026-05-06 05:36 45.18588 16.72898 36982 ft 474 kts
2026-05-06 05:36 45.25154 16.74333 36978 ft 480 kts
2026-05-06 05:37 45.31796 16.75785 36979 ft 485 kts
2026-05-06 05:37 45.38497 16.77249 36976 ft 490 kts
2026-05-06 05:38 45.45257 16.78731 37173 ft 489 kts
2026-05-06 05:38 45.48592 16.79467 37548 ft 482 kts
2026-05-06 05:38 45.51869 16.80197 37926 ft 469 kts
2026-05-06 05:39 45.55041 16.80912 38311 ft 455 kts
2026-05-06 05:39 45.58149 16.81607 38630 ft 452 kts
2026-05-06 05:39 45.64363 16.82975 38559 ft 452 kts
2026-05-06 05:40 45.67474 16.83653 38415 ft 452 kts
2026-05-06 05:40 45.70589 16.84331 38273 ft 453 kts
2026-05-06 05:40 45.73699 16.85013 38125 ft 452 kts
2026-05-06 05:40 45.76805 16.85704 37984 ft 451 kts
2026-05-06 05:41 45.79909 16.86397 37714 ft 452 kts
2026-05-06 05:41 45.83008 16.87085 37321 ft 451 kts
2026-05-06 05:41 45.86113 16.87772 36983 ft 450 kts
2026-05-06 05:41 45.89203 16.88459 36954 ft 450 kts
2026-05-06 05:42 45.95410 16.89843 36955 ft 451 kts
2026-05-06 05:42 46.01612 16.91232 36956 ft 451 kts
2026-05-06 05:43 46.07822 16.92628 36950 ft 451 kts
2026-05-06 05:43 46.14034 16.94027 36963 ft 452 kts
2026-05-06 05:44 46.20290 16.95437 36949 ft 452 kts
2026-05-06 05:44 46.26518 16.96801 36946 ft 453 kts
2026-05-06 05:45 46.32768 16.97901 36961 ft 452 kts
2026-05-06 05:45 46.39031 16.98898 36938 ft 454 kts
2026-05-06 05:46 46.45315 16.99956 36938 ft 455 kts
2026-05-06 05:46 46.51606 17.01060 36943 ft 456 kts
2026-05-06 05:47 46.57902 17.02178 36955 ft 456 kts
2026-05-06 05:47 46.64208 17.03290 36956 ft 456 kts
2026-05-06 05:48 46.70513 17.04392 36957 ft 456 kts
2026-05-06 05:48 46.76820 17.05501 36964 ft 457 kts
2026-05-06 05:49 46.83135 17.06609 36955 ft 457 kts
2026-05-06 05:49 46.89455 17.07730 36943 ft 457 kts
2026-05-06 05:50 46.95775 17.08855 36945 ft 457 kts
2026-05-06 05:50 47.02089 17.09986 36923 ft 457 kts
2026-05-06 05:51 47.08409 17.11116 36913 ft 457 kts
2026-05-06 05:51 47.14755 17.12246 36925 ft 457 kts
2026-05-06 05:52 47.21072 17.13372 36913 ft 458 kts
2026-05-06 05:52 47.27392 17.14510 36908 ft 458 kts
2026-05-06 05:53 47.33727 17.15659 36906 ft 458 kts
2026-05-06 05:53 47.40062 17.16797 36921 ft 459 kts
2026-05-06 05:54 47.46408 17.17942 36909 ft 460 kts
2026-05-06 05:54 47.52758 17.19103 36902 ft 460 kts
2026-05-06 05:55 47.59106 17.20257 36888 ft 460 kts
2026-05-06 05:55 47.65505 17.21418 36882 ft 460 kts
2026-05-06 05:56 47.71860 17.22575 36882 ft 460 kts
2026-05-06 05:56 47.78210 17.23742 36885 ft 460 kts
2026-05-06 05:57 47.84570 17.24915 36888 ft 460 kts
2026-05-06 05:57 47.90925 17.26087 36886 ft 461 kts
2026-05-06 05:58 47.96217 17.27062 36894 ft 461 kts
2026-05-06 05:58 48.02624 17.28241 36909 ft 461 kts
2026-05-06 05:59 48.09000 17.29423 36912 ft 461 kts
2026-05-06 05:59 48.15369 17.30489 36930 ft 461 kts
2026-05-06 06:00 48.21760 17.31096 36920 ft 460 kts 359°
2026-05-06 06:00 48.28170 17.31572 36904 ft 462 kts 359°
2026-05-06 06:01 48.34591 17.32131 36872 ft 463 kts 360°
2026-05-06 06:01 48.40974 17.32773 36875 ft 463 kts 360°
2026-05-06 06:02 48.47425 17.33428 36880 ft 464 kts 360°
2026-05-06 06:02 48.53867 17.34065 36878 ft 464 kts 360°
2026-05-06 06:03 48.60317 17.34697 36881 ft 464 kts 360°
2026-05-06 06:03 48.66769 17.35336 36886 ft 465 kts 360°
2026-05-06 06:04 48.73223 17.35975 36883 ft 465 kts 360°
2026-05-06 06:04 48.79730 17.36624 36881 ft 466 kts
2026-05-06 06:05 48.86155 17.37271 36884 ft 466 kts 360°
2026-05-06 06:05 48.92666 17.37911 36893 ft 466 kts 360°
2026-05-06 06:06 48.99144 17.38551 36888 ft 466 kts 360°
2026-05-06 06:06 49.05621 17.39197 36888 ft 467 kts 360°
2026-05-06 06:07 49.12097 17.39852 36896 ft 467 kts 360°
2026-05-06 06:07 49.18586 17.40502 36884 ft 467 kts 360°
2026-05-06 06:08 49.25071 17.41163 36867 ft 467 kts 360°
2026-05-06 06:08 49.31600 17.41832 36867 ft 467 kts 360°
2026-05-06 06:09 49.38088 17.42494 36875 ft 468 kts 360°
2026-05-06 06:09 49.44586 17.43155 36870 ft 468 kts 360°
2026-05-06 06:10 49.51089 17.43810 36860 ft 468 kts 360°
2026-05-06 06:10 49.57592 17.44471 36862 ft 468 kts
2026-05-06 06:11 49.64093 17.45145 36861 ft 468 kts
2026-05-06 06:11 49.70591 17.45824 36858 ft 468 kts
2026-05-06 06:12 49.77084 17.46494 36850 ft 468 kts 360°
2026-05-06 06:12 49.83579 17.47154 36843 ft 468 kts
2026-05-06 06:13 49.90084 17.47826 36845 ft 469 kts 360°